Mansfield, OH

7:45 AM EST on February 23, 2018 (GMT -0500)
Mansfield Lahm Regional

Weather History for KMFD - December, 2013

Change the Weather History Date:

Monday, December 30, 2013

  Actual Average Record
Temperature  
Mean Temperature 24 °F 26 °F  
Max Temperature 27 °F 33 °F 63 °F (1971)
Min Temperature 20 °F 19 °F -12 °F (1917)
Degree Days  
Heating Degree Days 41 39  
Month to date heating degree days 1021 1058  
Since 1 July heating degree days 2353 2339  
Cooling Degree Days 0 0  
Month to date cooling degree days 0 0  
Year to date cooling degree days 741 632  
Moisture  
Dew Point 18 °F    
Average Humidity 84    
Maximum Humidity 100    
Minimum Humidity 68    
Precipitation  
Precipitation 0.01 in 0.11 in 2.55 in (1990)
Month to date precipitation 3.93 3.19  
Year to date precipitation 42.77 44.09  
Snow  
Snow T in 0.40 in - ()
Month to date snowfall 12.7 10.1  
Since 1 July snowfall 14.3 12.8  
Snow Depth T in    
Sea Level Pressure  
Sea Level Pressure 30.13 in    
Wind  
Wind Speed 7 mph (WNW)    
Max Wind Speed 17 mph    
Max Gust Speed 23 mph    
Visibility 9 miles    
Events Rain , Snow    
T = Trace of Precipitation, MM = Missing Value Source: NWS Daily Summary

Daily Weather History Graph

Daily Weather History Graph

Search for Another Location

Airport or City:

Trip Planner

Search our weather history database for the weather conditions in past years. The results will help you decide how hot, cold, wet, or windy it might be!

Date:

Astronomy

Dec. 30, 2013 Rise Set
Actual Time 7:54 AM EST 5:11 PM EST
Civil Twilight 7:23 AM EST 5:42 PM EST
Nautical Twilight 6:48 AM EST 6:16 PM EST
Astronomical Twilight 6:15 AM EST 6:50 PM EST
Moon 5:42 AM EST (12/30) 3:43 PM EST (12/30)
Length of Visible Light 10h 19m
Length of Day
9h 17m
Waning Crescent, 5% of the Moon is Illuminated
Dec 30
Waning Crescent
Jan 1
New
Jan 7
First Quarter
Jan 15
Full
Jan 24
Last Quarter

Hourly Weather History & Observations

Time (EST) Temp. Windchill Dew Point Humidity Pressure Visibility Wind Dir Wind Speed Gust Speed Precip Events Conditions
12:26 AM 26.6 °F 15.2 °F 26.6 °F 100% 29.94 in 3.0 mi NW 13.8 mph - N/A   Overcast
12:52 AM 27.0 °F 18.7 °F 26.1 °F 96% 29.98 in 3.0 mi NW 8.1 mph - N/A   Overcast
1:52 AM 27.0 °F 17.3 °F 26.1 °F 96% 30.00 in 4.0 mi NW 10.4 mph - N/A   Overcast
2:27 AM 26.6 °F 16.8 °F 26.6 °F 100% 29.98 in 5.0 mi NW 10.4 mph - 0.00 in Rain Light Freezing Rain
2:45 AM 26.6 °F 17.5 °F 24.8 °F 93% 29.99 in 6.0 mi West 9.2 mph 23.0 mph 0.01 in Snow Light Snow
2:52 AM 26.1 °F 14.5 °F 24.1 °F 92% 30.03 in 4.0 mi West 13.8 mph 18.4 mph 0.01 in   Overcast
3:52 AM 24.1 °F 13.7 °F 23.0 °F 96% 30.06 in 4.0 mi WNW 10.4 mph - N/A   Overcast
4:33 AM 23.0 °F 12.4 °F 19.4 °F 86% 30.05 in 10.0 mi WNW 10.4 mph 20.7 mph N/A   Overcast
4:52 AM 23.0 °F 10.6 °F 18.0 °F 81% 30.10 in 10.0 mi WNW 13.8 mph 20.7 mph N/A   Overcast
5:43 AM 21.2 °F 8.9 °F 17.6 °F 86% 30.09 in 10.0 mi NW 12.7 mph - N/A   Overcast
5:52 AM 21.0 °F 8.1 °F 16.0 °F 81% 30.14 in 10.0 mi NW 13.8 mph - N/A   Overcast
6:52 AM 19.9 °F 10.1 °F 15.1 °F 81% 30.17 in 10.0 mi NW 8.1 mph - N/A   Overcast
7:52 AM 19.9 °F 10.1 °F 12.9 °F 74% 30.18 in 10.0 mi North 8.1 mph - N/A   Overcast
8:52 AM 19.9 °F 11.1 °F 12.0 °F 71% 30.20 in 10.0 mi North 6.9 mph - N/A   Overcast
9:52 AM 19.9 °F 12.1 °F 12.9 °F 74% 30.24 in 10.0 mi NNW 5.8 mph - N/A   Overcast
10:52 AM 21.0 °F 12.4 °F 14.0 °F 74% 30.25 in 10.0 mi NNW 6.9 mph - N/A   Overcast
11:52 AM 21.0 °F 16.2 °F 12.9 °F 71% 30.23 in 10.0 mi Variable 3.5 mph - N/A   Overcast
12:52 PM 21.0 °F 14.6 °F 14.0 °F 74% 30.22 in 10.0 mi NNW 4.6 mph - N/A   Mostly Cloudy
1:52 PM 21.9 °F 14.5 °F 12.9 °F 68% 30.22 in 10.0 mi West 5.8 mph - N/A   Overcast
2:52 PM 21.0 °F 14.6 °F 14.0 °F 74% 30.21 in 10.0 mi WNW 4.6 mph - 0.00 in   Overcast
3:52 PM 21.0 °F - 14.0 °F 74% 30.20 in 10.0 mi Calm Calm - 0.00 in   Overcast
4:52 PM 21.0 °F - 14.0 °F 74% 30.19 in 10.0 mi Calm Calm - N/A   Overcast
5:52 PM 21.0 °F 14.6 °F 15.1 °F 78% 30.19 in 10.0 mi North 4.6 mph - N/A   Overcast
6:52 PM 21.0 °F - 16.0 °F 81% 30.20 in 10.0 mi Calm Calm - N/A   Overcast
7:52 PM 21.0 °F - 16.0 °F 81% 30.20 in 10.0 mi Calm Calm - N/A   Overcast
8:52 PM 21.9 °F 15.7 °F 17.1 °F 82% 30.20 in 10.0 mi SSW 4.6 mph - N/A   Overcast
9:14 PM 21.2 °F 14.9 °F 17.6 °F 86% 30.13 in 10.0 mi SSW 4.6 mph - N/A   Overcast
9:33 PM 21.2 °F 12.6 °F 17.6 °F 86% 30.12 in 10.0 mi SSW 6.9 mph - N/A   Overcast
9:52 PM 21.9 °F 13.4 °F 17.1 °F 82% 30.18 in 10.0 mi SSW 6.9 mph - N/A   Overcast
10:52 PM 21.9 °F 13.4 °F 17.1 °F 82% 30.16 in 10.0 mi SW 6.9 mph - 0.00 in   Overcast
11:23 PM 21.2 °F 11.7 °F 15.8 °F 80% 30.10 in 10.0 mi SW 8.1 mph - N/A   Overcast
11:35 PM 21.2 °F 11.7 °F 17.6 °F 86% 30.09 in 10.0 mi SW 8.1 mph - N/A   Overcast
11:52 PM 21.9 °F 12.5 °F 16.0 °F 78% 30.15 in 10.0 mi WSW 8.1 mph - N/A   Overcast